Find Starlink 1557

NORAD ID: 46034 Int'l Des: 2020-055 Owner: SPXS Country: US Constellation: starlink operational
LEOCIRCULARSTARLINK_TYPE

リアルタイム位置

3D地球を読み込み中...

Starlink 1557について

説明を読み込み中...

次回通過

Passes for default location (London). Set your location on the main map for personalized predictions.

高度履歴

Loading altitude history...

軌道要素

1 46034U 20055H 26126.55126440 .00002861 00000-0 10864-3 0 9992
2 46034 53.1572 217.9467 0001162 93.8220 266.2913 15.30213555317721
Epoch: May 6, 2026 • Age: 18 hours

現在のステータス

高度 486.1 km
速度 7.62 km/s
衛星直下点 -33.44°S, 87.07°E
打ち上げ日 Aug 7, 2020
運用期間 5.7 years
タイプ internet

技術仕様

分類 Payload
質量 260.00 kg
乾燥質量 248.00 kg
総質量 260.00 kg
長さ 0.20 m
直径 2.80 m
スパン 9.00 m
形状 Box + pan
製造者 SPXS
バスタイプ Starlink
フェーズステータス In Orbit
所有者/国 SPXS/US

Most Searched